Location: Bratsk-Energetik
(56.3300°N, 101.7600°E)
Time: 22:13:36
(UTC+08:00)

ISS - Pass Details

Date: 28 May 2017
Orbit: 402 x 409 km, 51.6° (Epoch: 25 May)

Event Time Altitude Azimuth Distance (km) Brightness Sun altitude
Rises 23:01:49 0° 246° (WSW) 2,330 0.1 -7.5°
Reaches altitude 10° 23:04:00 10° 237° (WSW) 1,470 -1.0 -7.7°
Maximum altitude 23:07:01 33° 171° (S) 706 -3.1 -7.9°
Drops below altitude 10° 23:10:01 10° 105° (ESE) 1,469 -1.4 -8.1°
Sets 23:12:12 0° 96° (E) 2,328 -0.3 -8.2°
